Regional Weather Roundup
Issued by NWS

Home | Current Version | Previous Version | Text Only | Print | Product List | Glossary Off
Versions: 1 2 3 4 5 6 7 8 9 10 11 12 13 14 15 16 17 18 19 20 21 22 23 24 25 26 27 28 29 30 31 32 33 34 35 36 37 38 39 40 41 42 43 44 45 46 47 48 49 50

000
ASUS45 KABQ 020110
RWRNM
WEATHER ROUNDUP FOR NEW MEXICO
NATIONAL WEATHER SERVICE ALBUQUERQUE NM
700 PM MDT MON SEP 01 2014

NOTE: "FAIR" MEANS FEW OR NO CLOUDS BELOW 12,000 FEET AGL WITH NO
       SIGNIFICANT WEATHER OR OBSTRUCTIONS TO VISION.

      THIS PRODUCT IS RELEASED AS TWO VERSIONS.  ONE VERSION NEAR
      THE TOP OF THE HOUR CONTAINING PRELIMINARY DATA FROM ALBUQUERQUE
      AND OTHER STATIONS.  A FINAL VERSION WITH ADDITIONAL DATA IS
      ISSUED ABOUT 10 MINUTES AFTER THE HOUR.

NMZ501-503-504-510>518-020200-
NORTHWEST PLATEAU/NORTHCENTRAL MOUNTAINS

CITY           SKY/WX    TMP DP  RH WIND       PRES   REMARKS
FARMINGTON     CLEAR     87  27  11 NW12      30.03S
LOS ALAMOS     CLEAR     79  30  16 W8G16     30.18R
SANTA FE       CLEAR     84  30  14 W13       30.08S
ANGEL FIRE     FAIR      71  25  18 W10G26    30.25R

$$
NMZ402-403-502-505>509-020200-
WESTCENTRAL MOUNTAINS/SOUTHWEST MOUNTAINS

CITY           SKY/WX    TMP DP  RH WIND       PRES   REMARKS
GALLUP         MOCLDY    85  34  16 W13       30.13R
SILVER CITY    CLEAR     86  32  14 W14       30.08S

$$
NMZ407-409-411-412-020200-
SOUTHERN DESERTS

CITY           SKY/WX    TMP DP  RH WIND       PRES   REMARKS
LORDSBURG      FAIR      90  36  14 W8        29.98S
DEMING         CLEAR     92  36  14 W13G21    29.97R
LAS CRUCES     CLEAR     94  29  10 SW13      29.98S
HOLLOMAN AFB   CLEAR     94  31  10 S5        29.92F
ALAMOGORDO     CLEAR     91  34  13 S3        29.95S
T OR C         CLEAR     92  32  12 SE8       29.97S

$$
NMZ519>523-020200-
CENTRAL VALLEYS/CENTRAL HIGHLANDS

CITY           SKY/WX    TMP DP  RH WIND       PRES   REMARKS
ALBUQUERQUE    PTCLDY    90  36  14 SW7       30.01F
DOUBLE EAGLE   PTCLDY    86  37  17 W3        30.06S
MORIARTY ARPT  FAIR      82  37  20 W6        30.10S
CLINES CORNERS CLEAR     79  35  20 W10       30.15S
BELEN          FAIR      90  35  14 W9        30.00S
SOCORRO        FAIR      89  39  16 SE3       29.99S

$$
NMZ524>526-539-540-020200-
SOUTHCENTRAL MOUNTAINS

CITY           SKY/WX    TMP DP  RH WIND       PRES   REMARKS
RUIDOSO        CLEAR     79  32  18 W8        30.19S

$$
NMZ527>531-020200-
NORTHEAST HIGHLANDS/NORTHEAST PLAINS

CITY           SKY/WX    TMP DP  RH WIND       PRES   REMARKS
LAS VEGAS      CLEAR     80  34  19 W12       30.11R
RATON          CLEAR     81  34  18 SW17      30.01S
CLAYTON        CLEAR     78  53  41 SE12      29.98R

$$
NMZ532>537-020200-
EASTCENTRAL PLAINS

CITY           SKY/WX    TMP DP  RH WIND       PRES   REMARKS
TUCUMCARI      CLEAR     94  39  14 S8        29.87S
CANNON AFB     CLEAR     90  44  19 SW5       29.93S
CLOVIS AIRPORT   N/A     90  39  17 SW7       29.95S

$$
NMZ028-029-538-020200-
SOUTHEAST PLAINS

CITY           SKY/WX    TMP DP  RH WIND       PRES   REMARKS
ROSWELL        CLEAR     94  44  17 SE7       29.87S
CARLSBAD       CLEAR    100  34  10 W10       29.84S
HOBBS          CLEAR     95  39  14 S8        29.89S


$$



USA.gov is the U.S. government's official web portal to all federal, state and local government web resources and services.